DW6569 Weather Reports


Display with metric or nautical units.
time (UTC)temp
F
wind
direction
speed
MPH
gust
MPH
rain 1hr
in
rain 24hr
in
rain mn
in
humidity
%
barometer
mb
20260504200005 73 0 0.0 0.0 0.00 0.09 0.09 53 1011.5
20260504195004 72 0 0.0 0.0 0.00 0.09 0.09 54 1011.8
20260504194005 72 0 0.0 0.0 0.00 0.09 0.09 55 1012.4
20260504193005 71 0 0.0 0.0 0.00 0.09 0.09 55 1012.5
20260504192005 71 0 0.0 0.0 0.00 0.09 0.09 54 1012.8
20260504191005 71 0 0.0 0.0 0.00 0.09 0.09 55 1012.8
20260504190005 71 0 0.0 0.0 0.00 0.09 0.09 55 1013.2
20260504184005 70 0 0.0 0.0 0.00 0.09 0.09 55 1013.5
20260504183006 70 0 0.0 0.0 0.00 0.09 0.09 58 1013.5
20260504182005 69 0 0.0 0.0 0.00 0.09 0.09 57 1013.5
20260504181005 68 0 0.0 0.0 0.00 0.09 0.09 58 1013.5
20260504180005 68 0 0.0 0.0 0.00 0.09 0.09 58 1013.5
20260504175005 68 0 0.0 0.0 0.00 0.09 0.09 57 1014.2
20260504174004 67 0 0.0 0.0 0.00 0.09 0.09 60 1014.2
20260504173005 66 0 0.0 0.0 0.00 0.09 0.09 59 1014.2
20260504172006 65 0 0.0 0.0 0.00 0.09 0.09 60 1014.5
20260504171004 65 0 0.0 0.0 0.00 0.09 0.09 60 1014.5
20260504151004 53 0 0.0 0.0 0.00 0.09 0.09 86 1016.2
20260504141005 45 0 0.0 0.0 0.09 0.09 0.09 87 1016.5
20260504082005 41 0 0.0 0.0 0.00 0.00 0.00 77 1015.2
20260504081005 41 0 0.0 0.0 0.00 0.00 0.00 76 1015.2
20260504050005 44 0 0.0 0.0 0.00 0.00 0.00 67 1015.9
20260504045005 44 0 0.0 0.0 0.00 0.00 0.00 66 1015.9
20260504044006 45 0 0.0 0.0 0.00 0.00 0.00 65 1015.9
20260504041006 46 0 0.0 0.0 0.00 0.00 0.00 64 1015.5
20260504040007 46 0 0.0 0.0 0.00 0.00 0.00 63 1015.5
20260504035006 47 0 0.0 0.0 0.00 0.00 0.00 62 1015.5
20260504032005 48 0 0.0 0.0 0.00 0.00 0.00 60 1015.5
20260504031006 48 0 0.0 0.0 0.00 0.00 0.00 60 1015.5
20260504030006 48 0 0.0 0.0 0.00 0.00 0.00 59 1015.3
20260504024006 49 0 0.0 0.0 0.00 0.00 0.00 58 1015.2
20260504023007 50 0 0.0 0.0 0.00 0.00 0.00 57 1015.2
20260504022006 51 0 0.0 0.0 0.00 0.00 0.00 57 1015.2
20260504021007 51 0 0.0 0.0 0.00 0.00 0.00 57 1015.2
20260504020006 51 0 0.0 0.0 0.00 0.00 0.00 57 1015.0
20260504014006 51 0 0.0 0.0 0.00 0.00 0.00 56 1014.5
20260504013006 51 0 0.0 0.0 0.00 0.00 0.00 55 1014.9
20260504012006 52 0 0.0 0.0 0.00 0.00 0.00 54 1014.9
20260504011006 53 0 0.0 0.0 0.00 0.00 0.00 54 1014.5
20260504010006 53 0 0.0 0.0 0.00 0.00 0.00 52 1014.5
20260504005005 54 0 0.0 0.0 0.00 0.00 0.00 53 1014.6
20260504004006 54 0 0.0 0.0 0.00 0.00 0.00 53 1014.8
20260504003007 54 0 0.0 0.0 0.00 0.00 0.00 52 1014.9
20260504001006 56 0 0.0 0.0 0.00 0.00 0.00 52 1014.5
20260504000007 57 0 0.0 0.0 0.00 0.00 0.00 52 1014.5
20260503235006 57 0 0.0 0.0 0.00 0.00 0.00 50 1014.3
20260503234006 58 0 0.0 0.0 0.00 0.00 0.00 48 1014.2
20260503233006 58 0 0.0 0.0 0.00 0.00 0.00 46 1014.5
20260503232005 59 0 0.0 0.0 0.00 0.00 0.00 46 1014.5
20260503225006 60 0 0.0 0.0 0.00 0.00 0.00 45 1014.9
20260503224006 60 0 0.0 0.0 0.00 0.00 0.00 44 1015.2
20260503223007 60 0 0.0 0.0 0.00 0.00 0.00 44 1015.2
20260503222008 61 0 0.0 0.0 0.00 0.00 0.00 42 1015.2
20260503221004 61 0 0.0 0.0 0.00 0.00 0.00 43 1015.2
20260503220004 61 0 0.0 0.0 0.00 0.00 0.00 43 1015.2
20260503215004 61 0 0.0 0.0 0.00 0.00 0.00 41 1015.5
20260503214005 61 0 0.0 0.0 0.00 0.00 0.00 42 1015.5
20260503213004 62 0 0.0 0.0 0.00 0.00 0.00 42 1015.5
20260503211005 63 0 0.0 0.0 0.00 0.00 0.00 40 1015.5
20260503210005 63 0 0.0 0.0 0.00 0.00 0.00 40 1015.9
20260503205005 64 0 0.0 0.0 0.00 0.00 0.00 41 1015.9
20260503203004 64 0 0.0 0.0 0.00 0.00 0.00 38 1016.2
20260503202005 63 0 0.0 0.0 0.00 0.00 0.00 39 1016.2